Regional Weather Roundup
Issued by NWS

Home | Current Version | Previous Version | Text Only | Print | Product List | Glossary Off
Versions: 1 2 3 4 5 6 7 8 9 10 11 12 13 14 15 16 17 18 19 20 21 22 23 24 25 26 27 28 29 30 31 32 33 34 35 36 37 38 39 40 41 42 43 44 45 46 47 48 49 50

069
ASUS44 KMEG 130600
RWRTN
TENNESSEE HOURLY STATE WEATHER ROUNDUP
NATIONAL WEATHER SERVICE MEMPHIS TN
1200 AM CST SAT FEB 13 2016

TNZ002-004-019-021-049-052-054-088>092-130700-
WEST TENNESSEE

CITY           SKY/WX    TMP DP  RH WIND       PRES   REMARKS
MEMPHIS INTL   CLEAR     37  24  59 NE10      30.44R WCI  30
NWS MEMPHIS      N/A     35 N/A N/A MISG        N/A
JACKSON        CLEAR     30  20  66 N15       30.44R WCI  19
DYERSBURG      PTCLDY    30  16  55 N13       30.48R WCI  20
UNION CITY     CLEAR     23  18  80 N5        30.46R WCI  17
PARIS          CLEAR     23  14  68 N9        30.44R WCI  13
LEXINGTON      CLEAR     28  16  59 N13       30.40R WCI  18
$$

TNZ008-025-027-028-033-062-065-066-130700-
NORTH MIDDLE TENNESSEE

CITY           SKY/WX    TMP DP  RH WIND       PRES   REMARKS
NASHVILLE      PTCLDY    27  12  53 N13G22    30.40R WCI  16
CLARKSVILLE    MOCLDY    25  15  66 N9        30.43R WCI  15
COOKEVILLE     PTCLDY    28  18  64 N7        30.31R WCI  21
CROSSVILLE     CLOUDY    26  13  57 NW10G23   30.24S WCI  16
$$

TNZ061-075-076-078-094-096-097-130700-
SOUTH MIDDLE TENNESSEE

CITY           SKY/WX    TMP DP  RH WIND       PRES   REMARKS
TULLAHOMA      PTCLDY    27  19  74 N12       30.32S WCI  16
WINCHESTER     PTCLDY    28  19  69 N10       30.32R WCI  19
MCMINNVILLE    CLEAR     28  16  59 NW12      30.32R WCI  18
COLUMBIA       CLEAR     30  25  80 N13       30.36R WCI  20
SHELBYVILLE    MOCLDY    28  21  74 NW7       30.36S WCI  21
$$

TNZ017-018-042-046-047-130700-
NORTHEAST TENNESSEE

CITY           SKY/WX    TMP DP  RH WIND       PRES   REMARKS
TRI CITIES     LGT SNOW  27  23  85 W16G23    30.16R FOG     WCI  15
$$

TNZ012-013-036-069-073-074-130700-
CENTRAL EAST TENNESSEE

CITY           SKY/WX    TMP DP  RH WIND       PRES   REMARKS
KNOXVILLE      CLOUDY    30  19  63 W13       30.26S WCI  20
OAK RIDGE      CLOUDY    32  18  56 NW6       30.28S WCI  26
GATLINBURG     CLOUDY    28  21  74 W6        30.25R WCI  22
$$

TNZ083-085-099-130700-
SOUTHEAST TENNESSEE

CITY           SKY/WX    TMP DP  RH WIND       PRES   REMARKS
CHATTANOOGA    CLOUDY    35  20  54 N15G22    30.30R WCI  25
$$

SKY/WX REPORTED AS FAIR MEANS FEW OR NO CLOUDS BELOW
12 THOUSAND FEET.





USA.gov is the U.S. government's official web portal to all federal, state and local government web resources and services.